This is the latest recevied weather packets stored in our database for station/object KI4HRG. If no packets are shown the sender has not sent any weather packets the latest 10 day(s).
| Time | Temp. | Humidity | Pressure | Rain* | Wind** | Luminosity | Snow |
|---|---|---|---|---|---|---|---|
| 1777579521 | 21.67° C | 59% | 1012.8 hPa | 0 mm | - | 340 W/m² | - |
| 1777579221 | 21.11° C | 61% | 1012.8 hPa | 0 mm | - | 310 W/m² | - |
| 1777578916 | 21.11° C | 65% | 1012.8 hPa | 0 mm | - | 557 W/m² | - |
| 1777578612 | 21.67° C | 63% | 1012.8 hPa | 0 mm | - | 478 W/m² | - |
| 1777578307 | 21.11° C | 62% | 1012.9 hPa | 0 mm | - | 637 W/m² | - |
| 1777578003 | 21.11° C | 61% | 1012.8 hPa | 0 mm | - | 397 W/m² | - |
| 1777577703 | 22.22° C | 58% | 1013.1 hPa | 0 mm | - | 520 W/m² | - |
| 1777577400 | 21.67° C | 61% | 1013.1 hPa | 0 mm | - | 519 W/m² | - |
| 1777577096 | 21.11° C | 62% | 1013 hPa | 0 mm | - | 455 W/m² | - |
| 1777576793 | 20.56° C | 61% | 1013.2 hPa | 0 mm | - | 727 W/m² | - |
| 1777576493 | 20.56° C | 60% | 1013.2 hPa | 0 mm | - | 732 W/m² | - |
| 1777576189 | 21.11° C | 61% | 1013.3 hPa | 0 mm | - | 594 W/m² | - |
| 1777575884 | 20.56° C | 62% | 1013.3 hPa | 0 mm | - | 755 W/m² | - |
| 1777575581 | 21.11° C | 63% | 1013.5 hPa | 0 mm | - | 491 W/m² | - |
| 1777575277 | 21.67° C | 64% | 1013.1 hPa | 0 mm | - | 549 W/m² | - |
| 1777574973 | 21.11° C | 63% | 1013.3 hPa | 0 mm | - | 457 W/m² | - |
| 1777574670 | 20.56° C | 64% | 1013.3 hPa | 0 mm | - | 429 W/m² | - |
| 1777574367 | 20.56° C | 63% | 1013.3 hPa | 0 mm | - | 425 W/m² | - |
| 1777574061 | 20.56° C | 63% | 1013.2 hPa | 0 mm | - | 361 W/m² | - |
| 1777573757 | 20.56° C | 64% | 1013.3 hPa | 0 mm | - | 757 W/m² | - |
| 1777573453 | 21.67° C | 64% | 1013.3 hPa | 0 mm | - | 747 W/m² | - |
| 1777573149 | 20.56° C | 65% | 1013.5 hPa | 0 mm | - | 828 W/m² | - |
| 1777572846 | 21.11° C | 65% | 1013.2 hPa | 0 mm | - | 591 W/m² | - |
| 1777572542 | 21.11° C | 63% | 1013.3 hPa | 0 mm | - | 661 W/m² | - |
| 1777572237 | 21.11° C | 66% | 1013 hPa | 0 mm | - | 494 W/m² | - |
* Rain latest hour (hover to see other rain measurements)
** Current wind speed in m/s (hover to see current wind gust speed)